Location: Drawsko Pomorskie
(53.5317°N, 15.8111°E)
Time: 04:02:28
(UTC+01:00)

Envisat - Pass Details

Date: 22 October 2019
Orbit: 764 x 766 km, 98.1° (Epoch: 20 November)

Event Time Altitude Azimuth Distance (km) Brightness Sun altitude
Rises 06:56:18 0° 22° (NNE) 3,247 6.4 -6.6°
Reaches altitude 10° 06:59:02 10° 36° (NE) 2,315 5.9 -6.2°
Maximum altitude 07:03:11 25° 91° (E) 1,527 5.7 -5.6°
Drops below altitude 10° 07:07:18 10° 145° (SE) 2,300 6.2 -5.0°
Sets 07:10:00 0° 159° (SSE) 3,220 6.7 -4.6°
